Location: Demmingen
(48.6757°N, 10.4375°E)
Time: 02:40:36
(UTC+00:00)

Cosmos 1703 Rocket - Pass Details

Date: 23 May 2024
Orbit: 602 x 629 km, 82.5° (Epoch: 13 June)

Event Time Altitude Azimuth Distance (km) Brightness Sun altitude
Exits shadow 00:58:58 32° 189° (S) 1,079 4.2 -16.9°
Maximum altitude 01:01:01 89° 283° (WNW) 632 3.5 -16.8°
Drops below altitude 10° 01:05:29 10° 10° (N) 2,014 7.4 -16.4°
Sets 01:07:44 0° 10° (N) 2,929 8.5 -16.3°
